BREEZE-M DEB

基本信息
目录编号:
38631
目录名称:
BREEZE-M DEB
国际标识:
2008-011CE
轨道中心:
EARTH
物体状态:
在轨
发射日期:
2008-03-14 UTC
轨道信息
数据来源: 国际轨道数据
星历时间: 2025-11-10T16:17:12+0800
半长轴: 19084.926km
偏心率: 0.6410555
轨道倾角: 49.238°
近地点辐角: 252.240°
升交点赤经: 308.082°
平近点角: 30.703°
近地点: 472.294km
远地点: 24941.288km
周期: 437.316分钟
每日圈数: 3.292813
详细信息
发射场:
TTMTR
轨道高度:
LEO
数据来源:
AOE Integration Group
参考系:
TEME
时间系统:
UTC
历元类型:
SGP4
2D轨道图
3D轨道图
轨道高度分析图
轨道倾角分析图
轨道综合分析图
查看轨道综合分析图